カタログに戻る

XIGUANG 1-04

運用中科学SSO
NORAD 61895·PAYLOAD·🇨🇳 China
この衛星名は、まだ公式ソースで確認されていません。

打ち上げ Nov 11, 2024 から Jiuquan Satellite Launch Center

Loading…

次のパス (今後24時間)

TLE

最新Source: Space-Track

元期: Sep 14, 2026, 12:13 UTC

1 61895U 24205B   26257.50953096  .00009251  00000-0  29998-3 0  9998
2 61895  97.4073 335.1206 0010829  80.4273 279.8192 15.32151777102353

AllMySatでXIGUANG 1-04をリアルタイム追跡

Download on the App Store